Tracking 19219 objects as of 20-Jul-2018
HD Live streaming from Space Station
objects crossing your sky now

FENGYUN 1C DEB

Track FENGYUN 1C DEB now!
10-day predictions


NORAD ID: 31768
Int'l Code: 1999-025CFT
Perigee: 737.2 km
Apogee: 817.2 km
Inclination: 99.1 °
Period: 100.2 minutes
Semi major axis: 7148 km
RCS: 0.011 m2 (small)
Launch date: May 10, 1999
Source: People's Republic of China (PRC)
Launch site: Taiyaun Space Center, China (TSC)

Note: This is SATELLITE DEBRIS
aabbcc
Your satellite tracking list
Your tracking list is empty




NASA's NSSDC Master Catalog

Two Line Element Set (TLE):
1 31768U 99025CFT 18200.54817885 +.00000650 +00000-0 +23364-3 0  9999
2 31768 099.0929 055.4934 0055966 101.2826 289.8845 14.36501891578222
Source of the keplerian elements: AFSPC